• In Uzbekistan
  • List of Countries
  • For 7 days
  • Water Temperature
  • Satellite Maps
  • Weather Map
  • Weather Widgets
  • user-avatar
    Login

    Hourly Weather Andzhan

    Today, 19 November, Monday

    Time Temperature Precipitation Wind Pressure Humidity
    00:00 +8°C° 0 mm 2 mps 724 mmHg 33%
    01:00 +8°C° 0 mm 2 mps 724 mmHg 34%
    02:00 +8°C° 0 mm 2 mps 725 mmHg 35%
    03:00 +8°C° 0 mm 2 mps 725 mmHg 35%
    04:00 +7°C° 0 mm 2 mps 725 mmHg 36%
    05:00 +7°C° 0 mm 2 mps 725 mmHg 36%
    06:00 +7°C° 0 mm 2 mps 725 mmHg 37%
    07:00 +7°C° 0 mm 2 mps 725 mmHg 37%
    08:00 +7°C° 0 mm 2 mps 725 mmHg 37%
    09:00 +9°C° 0 mm 2 mps 725 mmHg 33%
    10:00 +12°C° 0 mm 2 mps 724 mmHg 29%
    11:00 +14°C° 0 mm 2 mps 724 mmHg 25%
    12:00 +15°C° 0 mm 2 mps 723 mmHg 24%
    13:00 +15°C° 0 mm 2 mps 723 mmHg 22%
    14:00 +16°C° 0 mm 2 mps 722 mmHg 21%
    15:00 +15°C° 0 mm 1 mps 723 mmHg 23%
    16:00 +14°C° 0 mm 1 mps 723 mmHg 25%
    17:00 +13°C° 0 mm 1 mps 723 mmHg 28%
    18:00 +12°C° 0 mm 1 mps 723 mmHg 29%
    19:00 +11°C° 0 mm 1 mps 723 mmHg 31%
    20:00 +11°C° 0 mm 1 mps 723 mmHg 32%
    21:00 +11°C° 0 mm 1 mps 723 mmHg 33%
    22:00 +10°C° 0 mm 1 mps 723 mmHg 33%
    23:00 +10°C° 0 mm 1 mps 723 mmHg 34%

    Tomorrow, 20 November, Tuesday

    Time Temperature Precipitation Wind Pressure Humidity
    00:00 +10°C° 0 mm 1 mps 722 mmHg 34%
    01:00 +10°C° 0 mm 1 mps 722 mmHg 35%
    02:00 +9°C° 0 mm 1 mps 722 mmHg 36%
    03:00 +9°C° 0 mm 1 mps 722 mmHg 36%
    04:00 +9°C° 0 mm 1 mps 722 mmHg 37%
    05:00 +9°C° 0 mm 1 mps 722 mmHg 37%
    06:00 +9°C° 0 mm 1 mps 722 mmHg 38%
    07:00 +9°C° 0 mm 1 mps 723 mmHg 38%
    08:00 +9°C° 0 mm 1 mps 723 mmHg 39%
    09:00 +9°C° 0 mm 2 mps 723 mmHg 37%
    10:00 +9°C° 0 mm 2 mps 723 mmHg 35%
    11:00 +10°C° 0 mm 3 mps 724 mmHg 33%
    12:00 +10°C° 0 mm 2 mps 724 mmHg 36%
    13:00 +10°C° 0 mm 2 mps 724 mmHg 39%
    14:00 +10°C° 0 mm 2 mps 724 mmHg 42%
    15:00 +9°C° 0.1 mm 2 mps 724 mmHg 46%
    16:00 +10°C° 0.1 mm 1 mps 725 mmHg 51%
    17:00 +9°C° 0.1 mm 1 mps 725 mmHg 55%
    18:00 +9°C° 0.1 mm 1 mps 725 mmHg 56%
    19:00 +9°C° 0.1 mm 1 mps 726 mmHg 58%
    20:00 +9°C° 0.1 mm 1 mps 726 mmHg 59%
    21:00 +8°C° 0 mm 1 mps 726 mmHg 60%
    22:00 +8°C° 0 mm 1 mps 726 mmHg 61%
    23:00 +8°C° 0 mm 1 mps 726 mmHg 62%

    Day after tomorrow, 21 November, Wednesday

    Time Temperature Precipitation Wind Pressure Humidity
    00:00 +7°C° 0 mm 2 mps 726 mmHg 62%
    01:00 +6°C° 0 mm 2 mps 726 mmHg 62%
    02:00 +6°C° 0 mm 2 mps 727 mmHg 62%
    03:00 +6°C° 0 mm 2 mps 727 mmHg 61%
    04:00 +6°C° 0 mm 2 mps 727 mmHg 60%
    05:00 +6°C° 0 mm 2 mps 727 mmHg 59%
    06:00 +6°C° 0 mm 2 mps 727 mmHg 58%
    07:00 +6°C° 0 mm 2 mps 727 mmHg 56%
    08:00 +6°C° 0 mm 2 mps 727 mmHg 55%
    09:00 +8°C° 0 mm 2 mps 726 mmHg 49%
    10:00 +10°C° 0 mm 2 mps 725 mmHg 43%
    11:00 +13°C° 0 mm 2 mps 724 mmHg 36%
    12:00 +14°C° 0 mm 2 mps 723 mmHg 34%
    13:00 +15°C° 0 mm 2 mps 722 mmHg 32%
    14:00 +16°C° 0 mm 2 mps 720 mmHg 29%
    15:00 +14°C° 0 mm 2 mps 720 mmHg 33%
    16:00 +13°C° 0 mm 2 mps 720 mmHg 37%
    17:00 +12°C° 0 mm 1 mps 720 mmHg 40%
    18:00 +11°C° 0 mm 1 mps 720 mmHg 41%
    19:00 +11°C° 0 mm 1 mps 720 mmHg 42%
    20:00 +10°C° 0 mm 1 mps 720 mmHg 42%
    21:00 +10°C° 0 mm 1 mps 719 mmHg 43%
    22:00 +10°C° 0 mm 1 mps 719 mmHg 44%
    23:00 +9°C° 0 mm 1 mps 718 mmHg 45%

    22 November, Thursday

    Time Temperature Precipitation Wind Pressure Humidity
    00:00 +9°C° 0 mm 1 mps 718 mmHg 45%
    01:00 +9°C° 0 mm 1 mps 717 mmHg 45%
    02:00 +9°C° 0 mm 1 mps 717 mmHg 45%
    03:00 +9°C° 0 mm 1 mps 717 mmHg 45%
    04:00 +9°C° 0 mm 1 mps 717 mmHg 44%
    05:00 +9°C° 0 mm 1 mps 717 mmHg 44%
    06:00 +9°C° 0 mm 1 mps 717 mmHg 46%
    07:00 +9°C° 0 mm 1 mps 718 mmHg 47%
    08:00 +8°C° 0 mm 2 mps 718 mmHg 49%
    09:00 +9°C° 0.1 mm 1 mps 719 mmHg 47%
    10:00 +10°C° 0.1 mm 1 mps 719 mmHg 46%
    11:00 +10°C° 0.1 mm 1 mps 720 mmHg 45%
    12:00 +10°C° 0.2 mm 1 mps 720 mmHg 45%
    13:00 +10°C° 0.2 mm 2 mps 720 mmHg 45%
    14:00 +10°C° 0.2 mm 2 mps 721 mmHg 45%
    15:00 +10°C° 0 mm 2 mps 721 mmHg 47%
    16:00 +9°C° 0 mm 2 mps 722 mmHg 48%
    17:00 +9°C° 0 mm 2 mps 722 mmHg 50%
    18:00 +9°C° 0 mm 2 mps 722 mmHg 51%
    19:00 +8°C° 0 mm 2 mps 723 mmHg 53%
    20:00 +8°C° 0 mm 2 mps 723 mmHg 54%
    21:00 +9°C° 0 mm 1 mps 723 mmHg 55%
    22:00 +9°C° 0 mm 1 mps 723 mmHg 55%
    23:00 +9°C° 0 mm 1 mps 723 mmHg 56%

    23 November, Friday

    Time Temperature Precipitation Wind Pressure Humidity
    00:00 +8°C° 0 mm 1 mps 723 mmHg 56%
    01:00 +8°C° 0 mm 1 mps 723 mmHg 56%
    02:00 +8°C° 0 mm 1 mps 722 mmHg 57%
    03:00 +8°C° 0 mm 1 mps 723 mmHg 57%
    04:00 +8°C° 0 mm 1 mps 723 mmHg 57%
    05:00 +8°C° 0 mm 1 mps 723 mmHg 57%
    06:00 +8°C° 0 mm 1 mps 723 mmHg 55%
    07:00 +9°C° 0 mm 1 mps 723 mmHg 54%
    08:00 +9°C° 0 mm 1 mps 723 mmHg 53%
    09:00 +10°C° 0 mm 1 mps 723 mmHg 49%
    10:00 +12°C° 0 mm 1 mps 722 mmHg 45%
    11:00 +13°C° 0 mm 1 mps 722 mmHg 41%
    12:00 +14°C° 0 mm 1 mps 722 mmHg 40%
    13:00 +14°C° 0 mm 1 mps 721 mmHg 40%
    14:00 +15°C° 0 mm 1 mps 721 mmHg 40%
    15:00 +14°C° 0 mm 1 mps 721 mmHg 43%
    16:00 +13°C° 0 mm 1 mps 721 mmHg 46%
    17:00 +12°C° 0 mm 1 mps 721 mmHg 49%
    18:00 +12°C° 0 mm 1 mps 721 mmHg 50%
    19:00 +12°C° 0 mm 1 mps 721 mmHg 50%
    20:00 +12°C° 0 mm 1 mps 721 mmHg 50%
    21:00 +12°C° 0 mm 1 mps 721 mmHg 51%
    22:00 +11°C° 0 mm 1 mps 721 mmHg 51%
    23:00 +11°C° 0 mm 1 mps 721 mmHg 51%

    24 November, Saturday

    Time Temperature Precipitation Wind Pressure Humidity
    00:00 +11°C° 0 mm 1 mps 721 mmHg 51%
    01:00 +11°C° 0 mm 1 mps 720 mmHg 51%
    02:00 +11°C° 0 mm 1 mps 720 mmHg 51%
    03:00 +11°C° 0 mm 1 mps 720 mmHg 52%
    04:00 +10°C° 0 mm 0 mps 719 mmHg 52%
    05:00 +10°C° 0 mm 0 mps 719 mmHg 52%
    06:00 +10°C° 0.1 mm 0 mps 719 mmHg 53%
    07:00 +11°C° 0.1 mm 1 mps 719 mmHg 54%
    08:00 +11°C° 0.1 mm 1 mps 719 mmHg 55%
    09:00 +11°C° 0.2 mm 1 mps 720 mmHg 55%
    10:00 +12°C° 0.2 mm 1 mps 720 mmHg 55%
    11:00 +12°C° 0.2 mm 2 mps 720 mmHg 56%
    12:00 +12°C° 1 mm 2 mps 721 mmHg 63%
    13:00 +10°C° 1 mm 3 mps 721 mmHg 71%
    14:00 +10°C° 1 mm 3 mps 722 mmHg 78%
    15:00 +9°C° 1 mm 3 mps 723 mmHg 79%
    16:00 +9°C° 1 mm 3 mps 724 mmHg 79%
    17:00 +8°C° 1 mm 4 mps 725 mmHg 80%
    18:00 +9°C° 0.4 mm 3 mps 725 mmHg 80%
    19:00 +9°C° 0.4 mm 2 mps 725 mmHg 80%
    20:00 +9°C° 0.4 mm 1 mps 726 mmHg 80%
    21:00 +9°C° 0.4 mm 1 mps 726 mmHg 82%
    22:00 +9°C° 0.4 mm 1 mps 726 mmHg 83%
    23:00 +9°C° 0.4 mm 1 mps 726 mmHg 84%
    Show more